Tracking 30107 objects as of 18-Jan-2025
HD Live streaming from Space Station
objects crossing your sky now

STARLINK-11299

Track STARLINK-11299 now!
10-day predictions
STARLINK-11299 is classified as:


NORAD ID: 61058
Int'l Code: 2024-164J
Perigee: 366.0 km
Apogee: 367.7 km
Inclination: 53.2 °
Period: 91.7 minutes
Semi major axis: 6737 km
RCS: Unknown
Launch date: September 13, 2024
Source: United States (US)
Launch site: AIR FORCE WESTERN TEST RANGE (AFWTR)
Your satellite tracking list
Your tracking list is empty




NASA's NSSDC Master Catalog

Two Line Element Set (TLE):
1 61058U 24164J   25017.92157837 -.00000436  00000-0  12626-5 0  9990
2 61058  53.1589 201.1628 0001205  74.7867 285.3284 15.69714964 20118
Source of the keplerian elements: AFSPC